GW0720 Weather Reports


Display with metric or nautical units.
time (UTC)temp
F
wind
direction
speed
MPH
gust
MPH
rain 1hr
in
rain 24hr
in
rain mn
in
humidity
%
barometer
mb
20260510153056 79 72 1.0 5.0 0.00 0.00 0.00 47 1015.4
20260510151552 78 90 1.0 4.0 0.00 0.00 0.00 49 1015.7
20260510150106 78 78 1.0 4.0 0.00 0.00 0.00 51 1015.8
20260510144610 78 47 0.0 2.0 0.00 0.00 0.00 57 1015.8
20260510143106 76 0 0.0 3.0 0.00 0.00 0.00 56 1015.7
20260510141557 75 0 0.0 4.0 0.00 0.00 0.00 51 1015.4
20260510140053 73 0 0.0 4.0 0.00 0.00 0.00 55 1015.4
20260510134600 71 247 1.0 4.0 0.00 0.00 0.00 59 1015.2
20260510133059 69 0 0.0 4.0 0.00 0.00 0.00 65 1015.3
20260510131556 66 307 0.0 2.0 0.00 0.00 0.00 79 1015.3
20260510130058 63 0 0.0 2.0 0.00 0.00 0.00 87 1015.0
20260510124557 61 0 0.0 1.0 0.00 0.00 0.00 93 1014.9
20260510123059 59 0 0.0 1.0 0.00 0.00 0.00 97 1014.9
20260510121556 58 0 0.0 1.0 0.00 0.00 0.00 97 1014.5
20260510120053 57 0 0.0 1.0 0.00 0.00 0.00 97 1014.3
20260510114551 55 0 0.0 0.0 0.00 0.00 0.00 97 1013.8
20260510113056 53 0 0.0 0.0 0.00 0.00 0.00 96 1013.7
20260510111557 52 0 0.0 0.0 0.00 0.00 0.00 95 1013.6
20260510110050 52 0 0.0 0.0 0.00 0.00 0.00 95 1013.5
20260510104558 52 0 0.0 0.0 0.00 0.00 0.00 95 1013.3
20260510103058 52 0 0.0 0.0 0.00 0.00 0.00 94 1013.2
20260510101554 52 0 0.0 0.0 0.00 0.00 0.00 94 1013.0
20260510100056 52 0 0.0 0.0 0.00 0.00 0.00 93 1012.8
20260510094552 53 0 0.0 0.0 0.00 0.00 0.00 93 1012.7
20260510093106 53 0 0.0 0.0 0.00 0.00 0.00 93 1012.6
20260510091609 53 0 0.0 0.0 0.00 0.00 0.00 93 1012.4
20260510090052 54 0 0.0 0.0 0.00 0.00 0.00 93 1012.3
20260510084554 54 0 0.0 0.0 0.00 0.00 0.00 92 1012.2
20260510083053 55 0 0.0 0.0 0.00 0.00 0.00 92 1012.2
20260510081621 56 0 0.0 0.0 0.00 0.00 0.00 92 1012.0
20260510080051 56 0 0.0 1.0 0.00 0.00 0.00 91 1012.1
20260510074553 57 0 0.0 0.0 0.00 0.00 0.00 91 1011.8
20260510073101 58 0 0.0 0.0 0.00 0.00 0.00 90 1011.8
20260510071551 58 0 0.0 0.0 0.00 0.00 0.00 90 1011.8
20260510070051 60 0 0.0 0.0 0.00 0.00 0.00 89 1011.8
20260510064559 60 0 0.0 0.0 0.00 0.00 0.00 88 1011.9
20260510063052 62 0 0.0 0.0 0.00 0.00 0.00 87 1011.9
20260510061554 63 0 0.0 1.0 0.00 0.00 0.00 85 1012.0
20260510060057 64 0 0.0 2.0 0.00 0.00 0.00 84 1011.9
20260510054554 64 0 0.0 3.0 0.00 0.00 0.00 84 1012.0
20260510053107 65 0 0.0 4.0 0.00 0.00 0.00 83 1012.0
20260510051604 65 0 0.0 4.0 0.00 0.00 0.00 83 1012.0
20260510050110 65 0 0.0 5.0 0.00 0.00 0.00 83 1011.9
20260510044604 64 0 0.0 3.0 0.00 0.00 0.00 84 1012.0
20260510043057 63 0 0.0 2.0 0.00 0.00 0.00 85 1011.9
20260510041601 62 0 0.0 3.0 0.00 0.00 0.00 87 1011.8
20260510040053 61 0 0.0 1.0 0.00 0.00 0.00 87 1011.7
20260510034551 61 0 0.0 1.0 0.00 0.00 0.00 88 1011.8
20260510033107 60 0 0.0 1.0 0.00 0.00 0.00 88 1011.6
20260510031552 60 0 0.0 1.0 0.00 0.00 0.00 88 1011.5
20260510030111 60 0 0.0 0.0 0.00 0.00 0.00 88 1011.5
20260510020118 60 0 0.0 0.0 0.00 0.00 0.00 87 1011.0
20260510014601 61 0 0.0 0.0 0.00 0.00 0.00 86 1010.8
20260510013051 61 0 0.0 0.0 0.00 0.00 0.00 84 1010.7
20260510011552 62 0 0.0 0.0 0.00 0.00 0.00 82 1010.5
20260510010054 63 0 0.0 0.0 0.00 0.00 0.00 80 1010.4
20260510004553 64 0 0.0 0.0 0.00 0.00 0.00 78 1010.2
20260510003101 66 0 0.0 0.0 0.00 0.00 0.00 76 1010.2
20260510001556 68 0 0.0 0.0 0.00 0.00 0.00 73 1010.2
20260510000057 69 0 0.0 0.0 0.00 0.00 0.00 67 1010.0
20260509234558 71 0 0.0 1.0 0.00 0.00 0.00 64 1009.7
20260509233103 72 0 0.0 1.0 0.00 0.00 0.00 61 1009.7
20260509231555 73 0 0.0 0.0 0.00 0.00 0.00 61 1009.6
20260509230059 74 0 0.0 2.0 0.00 0.00 0.00 57 1009.6
20260509224553 75 0 0.0 2.0 0.00 0.00 0.00 56 1009.5
20260509223057 75 0 0.0 5.0 0.00 0.00 0.00 55 1009.5
20260509221553 75 0 0.0 3.0 0.00 0.00 0.00 55 1009.6
20260509220057 75 0 0.0 5.0 0.00 0.00 0.00 57 1009.5
20260509214553 76 0 0.0 4.0 0.00 0.00 0.00 55 1009.5
20260509213055 76 43 0.0 3.0 0.00 0.00 0.00 52 1009.4
20260509211553 76 0 0.0 7.0 0.00 0.00 0.00 53 1009.5
20260509210055 77 344 2.0 10.0 0.00 0.00 0.00 51 1009.5
20260509204556 77 57 2.0 10.0 0.00 0.00 0.00 51 1009.3
20260509203058 77 42 1.0 8.0 0.00 0.00 0.00 53 1009.3
20260509201603 77 51 1.0 8.0 0.00 0.00 0.00 52 1009.4
20260509200110 77 42 1.0 6.0 0.00 0.00 0.00 52 1009.6
20260509194601 76 0 1.0 3.0 0.00 0.00 0.00 51 1009.6
20260509193112 73 36 0.0 8.0 0.00 0.00 0.00 56 1010.0
20260509191556 74 255 1.0 6.0 0.00 0.00 0.00 55 1010.1
20260509190106 75 254 1.0 6.0 0.00 0.00 0.00 50 1010.2
20260509184605 76 288 1.0 6.0 0.00 0.00 0.00 53 1010.6
20260509183100 75 0 1.0 11.0 0.00 0.00 0.00 51 1010.8
20260509181553 74 340 0.0 6.0 0.00 0.00 0.00 53 1010.8
20260509180055 75 0 2.0 10.0 0.00 0.00 0.00 51 1010.9
20260509174602 74 243 1.0 11.0 0.00 0.00 0.00 52 1011.1
20260509173109 75 71 1.0 6.0 0.00 0.00 0.00 53 1011.0
20260509171618 74 38 2.0 9.0 0.00 0.00 0.00 53 1011.3
20260509170054 74 19 2.0 6.0 0.00 0.00 0.00 54 1011.8
20260509164553 74 0 1.0 8.0 0.00 0.00 0.00 54 1012.0
20260509163107 73 59 3.0 7.0 0.00 0.00 0.00 55 1012.2
20260509161555 73 11 1.0 6.0 0.00 0.00 0.00 55 1012.0
20260509160059 71 232 2.0 8.0 0.00 0.00 0.00 58 1012.3
20260509154554 70 29 2.0 9.0 0.00 0.00 0.00 59 1012.3